GW5434 Weather Reports


time (UTC)temp
F
wind
direction
speed
knots
gust
knots
rain 1hr
in
rain 24hr
in
rain mn
in
humidity
%
barometer
mb
20260903190011 97 344 2.6 7.8 0.00 0.00 0.00 53 1014.7
20260903184504 99 101 1.7 5.2 0.00 0.00 0.00 47 1014.9
20260903183006 98 38 2.6 9.6 0.00 0.00 0.00 50 1015.1
20260903181507 98 137 2.6 4.3 0.00 0.00 0.00 52 1015.3
20260903180010 96 115 0.9 3.5 0.00 0.00 0.00 57 1015.6
20260903174514 95 123 1.7 7.0 0.00 0.00 0.00 56 1015.9
20260903173003 96 220 0.0 5.2 0.00 0.00 0.00 55 1016.0
20260903171506 95 30 1.7 5.2 0.00 0.00 0.00 56 1016.2
20260903170007 94 92 0.9 3.5 0.00 0.00 0.00 56 1016.4
20260903164512 94 282 1.7 6.1 0.00 0.00 0.00 58 1016.6
20260903163015 93 23 1.7 4.3 0.00 0.00 0.00 61 1016.8
20260903161519 93 110 1.7 3.5 0.00 0.00 0.00 60 1016.8
20260903160003 92 112 0.9 3.5 0.00 0.00 0.00 65 1016.7
20260903154505 91 308 1.7 4.3 0.00 0.00 0.00 66 1016.8
20260903153015 90 93 0.9 4.3 0.00 0.00 0.00 69 1016.8
20260903151518 88 302 1.7 5.2 0.00 0.00 0.00 70 1016.7
20260903150022 88 70 0.9 4.3 0.00 0.00 0.00 72 1016.6
20260903144505 87 295 1.7 5.2 0.00 0.00 0.00 74 1016.7
20260903143010 86 67 2.6 6.1 0.00 0.00 0.00 76 1016.8
20260903141515 85 117 0.0 4.3 0.00 0.00 0.00 78 1016.7
20260903140021 84 327 0.9 4.3 0.00 0.00 0.00 80 1016.8
20260903134519 82 335 0.9 4.3 0.00 0.00 0.00 82 1016.7
20260903133008 81 321 0.0 0.0 0.00 0.00 0.00 84 1016.8
20260903131511 79 331 0.0 0.0 0.00 0.00 0.00 86 1017.0
20260903130014 77 114 0.0 0.0 0.00 0.00 0.00 91 1016.8
20260903124523 74 114 0.0 0.0 0.00 0.00 0.00 94 1016.8
20260903123031 73 114 0.0 0.0 0.00 0.00 0.00 94 1016.8
20260903121507 72 114 0.0 0.0 0.00 0.00 0.00 94 1016.8
20260903120012 72 114 0.0 0.0 0.00 0.00 0.00 94 1016.6
20260903114520 72 114 0.0 0.0 0.00 0.00 0.00 93 1016.6
20260903113027 72 114 0.0 0.0 0.00 0.00 0.00 93 1016.4
20260903111535 72 114 0.0 0.0 0.00 0.00 0.00 93 1016.2
20260903110015 73 114 0.0 0.0 0.00 0.00 0.00 93 1016.1
20260903104514 73 114 0.0 0.0 0.00 0.00 0.00 93 1016.1
20260903103019 73 114 0.0 0.0 0.00 0.00 0.00 93 1016.0
20260903101536 73 114 0.0 0.0 0.00 0.00 0.00 93 1016.0
20260903100027 73 114 0.0 0.0 0.00 0.00 0.00 93 1015.9
20260903094511 73 114 0.0 0.0 0.00 0.00 0.00 93 1015.9
20260903093018 73 113 0.0 0.0 0.00 0.00 0.00 92 1015.9
20260903091523 74 113 0.0 0.0 0.00 0.00 0.00 92 1015.9
20260903090027 74 114 0.0 0.0 0.00 0.00 0.00 93 1015.9
20260903084526 74 114 0.0 0.0 0.00 0.00 0.00 92 1016.1
20260903083018 74 114 0.0 0.0 0.00 0.00 0.00 92 1016.1
20260903081529 74 113 0.0 0.0 0.00 0.00 0.00 92 1016.1
20260903080023 74 113 0.0 0.0 0.00 0.00 0.00 92 1016.0
20260903074530 74 113 0.0 0.0 0.00 0.00 0.00 92 1016.0
20260903073027 75 113 0.0 0.0 0.00 0.00 0.00 91 1016.0
20260903071516 75 113 0.0 0.0 0.00 0.00 0.00 91 1016.1
20260903070020 75 113 0.0 0.0 0.00 0.00 0.00 90 1016.2
20260903064527 75 113 0.0 0.0 0.00 0.00 0.00 91 1016.3
20260903063051 75 114 0.0 0.0 0.00 0.00 0.00 90 1016.4
20260903061530 76 114 0.0 0.0 0.00 0.00 0.00 89 1016.5
20260903060020 76 114 0.0 0.0 0.00 0.00 0.00 89 1016.7
20260903054520 77 114 0.0 0.0 0.00 0.00 0.00 88 1016.8
20260903053026 77 115 0.0 0.0 0.00 0.00 0.00 88 1016.9
20260903051532 76 171 0.0 0.0 0.00 0.00 0.00 89 1016.9
20260903050038 77 171 0.0 0.0 0.00 0.00 0.00 88 1017.0
20260903044519 77 166 0.0 0.0 0.00 0.00 0.00 87 1017.0
20260903043003 78 166 0.0 0.0 0.00 0.00 0.00 87 1016.9
20260903041510 78 166 0.0 0.0 0.00 0.00 0.00 86 1016.8
20260903040009 79 166 0.0 0.0 0.00 0.00 0.00 85 1016.9
20260903034526 79 166 0.0 0.0 0.00 0.00 0.00 84 1016.8
20260903033024 80 166 0.0 0.0 0.00 0.00 0.00 82 1016.8
20260903031504 81 166 0.0 0.0 0.00 0.00 0.00 81 1016.9
20260903030009 82 200 0.0 0.0 0.00 0.00 0.00 79 1016.7
20260903024513 83 217 0.0 0.9 0.00 0.00 0.00 78 1016.8
20260903023020 83 131 0.0 1.7 0.00 0.00 0.00 76 1016.7
20260903021528 84 229 0.9 3.5 0.00 0.00 0.00 76 1016.7
20260903020006 84 217 0.9 3.5 0.00 0.00 0.00 75 1016.5
20260903014510 85 207 0.9 4.3 0.00 0.00 0.00 75 1016.5
20260903013014 86 133 1.7 5.2 0.00 0.00 0.00 74 1016.2
20260903011520 86 240 0.9 4.3 0.00 0.00 0.00 73 1016.0
20260903010031 87 191 1.7 3.5 0.00 0.00 0.00 72 1015.8
20260903004508 88 194 0.0 2.6 0.00 0.00 0.00 69 1015.4
20260903003011 89 210 1.7 2.6 0.00 0.00 0.00 67 1015.2
20260903001517 90 90 0.0 7.0 0.00 0.00 0.00 65 1015.2
20260903000023 91 68 0.0 0.0 0.00 0.00 0.00 64 1015.0
20260902234536 94 91 0.0 0.9 0.00 0.00 0.00 60 1014.9
20260902233009 96 97 0.0 2.6 0.00 0.00 0.00 55 1014.9
20260902231525 97 110 0.0 3.5 0.00 0.00 0.00 54 1014.9
20260902230027 97 90 1.7 2.6 0.00 0.00 0.00 49 1014.6
20260902224524 99 143 0.9 2.6 0.00 0.00 0.00 49 1014.7
20260902223030 97 179 0.0 3.5 0.00 0.00 0.00 51 1014.9
20260902221517 97 63 2.6 4.3 0.00 0.00 0.00 48 1014.9
20260902220015 97 123 0.9 4.3 0.00 0.00 0.00 49 1015.1
20260902214520 97 111 2.6 5.2 0.00 0.00 0.00 51 1015.2
20260902213026 97 124 3.5 6.1 0.00 0.00 0.00 49 1015.3
20260902211539 97 89 1.7 4.3 0.00 0.00 0.00 50 1015.5
20260902210011 98 82 0.9 1.7 0.00 0.00 0.00 48 1015.4
20260902204518 98 184 1.7 7.0 0.00 0.00 0.00 47 1015.7
20260902203019 99 228 1.7 6.1 0.00 0.00 0.00 46 1015.8
20260902201534 99 113 0.9 3.5 0.00 0.00 0.00 47 1015.8
20260902200035 98 185 1.7 6.1 0.00 0.00 0.00 49 1016.0
20260902194514 97 94 0.9 7.8 0.00 0.00 0.00 49 1016.2
20260902193017 97 101 0.9 9.6 0.00 0.00 0.00 49 1016.5
20260902191532 97 203 4.3 7.8 0.00 0.00 0.00 50 1016.8